Poplar Bluff, MO

12:17 AM CDT on August 26, 2019 (GMT -0500)
Poplar Bluff Municipal

Weather History for KPOF - June, 2019

Change the Weather History Date:

Friday, June 14, 2019

  Actual Average Record
Temperature  
Mean Temperature 65 °F 76 °F  
Max Temperature 79 °F 86 °F 99 °F (1987)
Min Temperature 50 °F 66 °F 48 °F (1933)
Degree Days  
Heating Degree Days 0 0  
Month to date heating degree days 0 0  
Since 1 June heating degree days 0 0  
Since 1 July heating degree days 4043 4074  
Cooling Degree Days 0 11  
Month to date cooling degree days 105 132  
Year to date cooling degree days 319 296  
Since 1 June cooling degree days 105 132  
Growing Degree Days 14 (Base 50)    
Moisture  
Dew Point 53 °F    
Average Humidity 69    
Maximum Humidity 100    
Minimum Humidity 37    
Precipitation  
Precipitation 0.00 in 0.11 in 2.25 in (1900)
Month to date precipitation 1.50 1.85  
Year to date precipitation 35.47 22.08  
Sea Level Pressure  
Sea Level Pressure 30.07 in    
Wind  
Wind Speed 6 mph (SSW)    
Max Wind Speed 16 mph    
Max Gust Speed 23 mph    
Visibility 10 miles    
Events      
T = Trace of Precipitation, MM = Missing Value Source: NWS Daily Summary

Daily Weather History Graph

Daily Weather History Graph

Search for Another Location

Airport or City:

Astronomy

Jun. 14, 2019 Rise Set
Actual Time 5:41 AM CDT 8:21 PM CDT
Civil Twilight 5:11 AM CDT 8:52 PM CDT
Nautical Twilight 4:32 AM CDT 9:30 PM CDT
Astronomical Twilight 3:50 AM CDT 10:13 PM CDT
Moon 5:47 PM CDT (6/14) 3:54 AM CDT (6/14)
Length of Visible Light 15h 41m
Length of Day
14h 39m
Waxing Gibbous, 92% of the Moon is Illuminated
Jun 14
Waxing Gibbous
Jun 17
Full
Jun 25
Last Quarter
Jul 2
New
Jul 9
First Quarter

Hourly Weather History & Observations

Time (CDT) Temp. Dew Point Humidity Pressure Visibility Wind Dir Wind Speed Gust Speed Precip Events Conditions
12:53 AM 55.0 °F 54.0 °F 96% 30.11 in 10.0 mi Calm Calm - N/A   Clear
1:53 AM 54.0 °F 53.1 °F 97% 30.12 in 10.0 mi North 3.5 mph - N/A   Clear
2:53 AM 53.1 °F 52.0 °F 96% 30.11 in 10.0 mi Calm Calm - N/A   Clear
3:53 AM 52.0 °F 52.0 °F 100% 30.13 in 10.0 mi Calm Calm - N/A   Clear
4:53 AM 51.1 °F 50.0 °F 96% 30.13 in 10.0 mi Calm Calm - N/A   Clear
5:53 AM 50.0 °F 50.0 °F 100% 30.13 in 10.0 mi Calm Calm - N/A   Clear
6:53 AM 55.0 °F 53.1 °F 93% 30.12 in 10.0 mi Calm Calm - N/A   Clear
7:53 AM 62.1 °F 55.9 °F 80% 30.14 in 10.0 mi Calm Calm - N/A   Clear
8:53 AM 68.0 °F 55.9 °F 65% 30.16 in 10.0 mi South 6.9 mph - N/A   Clear
9:53 AM 73.0 °F 52.0 °F 48% 30.14 in 10.0 mi South 11.5 mph - N/A   Clear
10:53 AM 75.0 °F 52.0 °F 44% 30.13 in 10.0 mi South 11.5 mph - N/A   Clear
11:53 AM 75.9 °F 48.9 °F 38% 30.11 in 10.0 mi South 12.7 mph - N/A   Clear
12:53 PM 75.9 °F 48.9 °F 38% 30.08 in 10.0 mi SW 11.5 mph - N/A   Scattered Clouds
1:53 PM 78.1 °F 51.1 °F 39% 30.04 in 10.0 mi South 13.8 mph 19.6 mph N/A   Clear
2:53 PM 78.1 °F 51.1 °F 39% 30.01 in 10.0 mi South 10.4 mph - N/A   Clear
3:53 PM 79.0 °F 50.0 °F 36% 29.99 in 10.0 mi SSW 12.7 mph 20.7 mph N/A   Clear
4:53 PM 75.9 °F 50.0 °F 40% 29.99 in 10.0 mi SSW 8.1 mph - N/A   Clear
5:53 PM 75.0 °F 55.0 °F 50% 29.98 in 10.0 mi SSW 4.6 mph - N/A   Clear
6:53 PM 77.0 °F 55.0 °F 47% 29.96 in 10.0 mi SW 3.5 mph - N/A   Partly Cloudy
7:53 PM 73.0 °F 57.0 °F 57% 29.96 in 10.0 mi South 4.6 mph - N/A   Clear
8:53 PM 71.1 °F 57.9 °F 63% 29.95 in 10.0 mi South 5.8 mph - N/A   Clear